Date,TemperatureHighF,TemperatureAvgF,TemperatureLowF,DewpointHighF,DewpointAvgF,DewpointLowF,HumidityHigh,HumidityAvg,HumidityLow,PressureMaxIn,PressureMinIn,WindSpeedMaxMPH,WindSpeedAvgMPH,GustSpeedMaxMPH,PrecipitationSumIn
2013-1-1,76,67,60,69,64,59,97,91,79,30.12,29.99,5,1,0,0.00
2013-1-2,75,66,58,67,63,57,98,90,72,30.09,29.99,2,0,0,0.00
2013-1-3,76,67,61,69,63,60,98,88,67,30.10,29.99,3,1,0,0.00
2013-1-4,74,67,63,70,65,62,98,94,80,30.17,30.06,3,0,0,0.00
2013-1-5,72,66,63,70,64,62,98,96,88,30.21,30.09,3,0,0,0.00
2013-1-6,74,66,62,71,64,61,98,95,85,30.20,30.09,3,0,0,0.00
2013-1-7,75,68,62,69,64,61,98,90,74,30.11,29.99,4,1,0,0.00
2013-1-8,74,66,60,68,64,59,98,92,73,30.05,29.93,3,0,0,0.00
2013-1-9,72,68,65,70,66,64,98,95,89,30.04,29.92,2,0,0,0.00
2013-1-10,75,67,63,69,65,62,98,92,75,30.05,29.93,4,0,0,0.00
2013-1-11,76,67,62,70,64,61,98,93,77,29.98,29.86,5,1,0,0.00
2013-1-12,80,69,61,72,66,60,98,91,71,30.01,29.89,2,0,0,0.00
2013-1-13,81,70,63,72,67,62,98,91,66,30.01,29.89,1,0,0,0.00
2013-1-14,81,71,65,72,68,64,98,90,71,30.01,29.86,4,0,0,0.00
2013-1-15,75,68,62,70,66,60,97,94,83,29.95,29.87,2,0,0,0.00
2013-1-16,74,68,66,70,66,65,98,95,86,29.96,29.84,2,0,0,0.00
2013-1-17,74,67,62,67,64,61,98,90,74,29.93,29.82,2,0,0,0.00
2013-1-18,75,67,59,68,63,58,97,88,72,29.94,29.83,5,1,0,0.00
2013-1-19,75,66,57,63,58,54,98,79,51,30.02,29.88,6,1,0,0.00
2013-1-20,74,65,57,61,57,53,91,75,59,30.07,29.97,7,2,0,0.00
2013-1-21,75,65,56,63,58,54,93,80,55,30.15,30.03,6,1,0,0.00
2013-1-22,76,66,57,65,60,55,94,81,61,30.15,30.04,6,1,0,0.00
2013-1-23,73,66,60,67,62,57,94,88,75,30.12,30.02,3,0,0,0.00
2013-1-24,78,68,64,67,63,61,94,84,59,30.12,30.04,2,0,0,0.00
2013-1-25,78,68,62,67,63,60,94,84,57,30.13,30.02,2,0,0,0.00
2013-1-26,78,67,59,67,62,57,94,85,60,30.09,29.98,2,0,0,0.00
2013-1-27,78,68,62,68,62,57,94,82,64,30.05,29.91,5,1,0,0.00
2013-1-28,80,68,59,66,61,55,92,80,54,30.01,29.88,3,1,0,0.00
2013-1-29,78,69,64,69,65,61,93,87,72,30.05,29.92,3,0,0,0.00
2013-1-30,77,69,65,68,66,63,94,89,74,30.07,29.99,1,0,0,0.00
2013-1-31,76,69,65,68,66,63,95,88,75,30.11,30.02,3,0,0,0.00
2013-2-1,74,68,62,67,64,59,95,86,76,30.15,30.04,6,2,0,0.00
2013-2-2,76,66,58,63,59,56,93,78,59,30.19,30.08,4,1,0,0.00
2013-2-3,75,67,59,61,58,55,90,75,57,30.19,30.07,6,2,0,0.00
2013-2-4,75,67,61,66,61,56,93,82,60,30.15,30.04,7,2,0,0.00
2013-2-5,75,67,63,66,62,61,94,85,66,30.12,30.01,5,1,0,0.00
2013-2-6,75,68,63,68,64,61,95,89,75,30.10,30.01,4,1,0,0.00
2013-2-7,75,68,65,70,66,63,95,91,76,30.14,30.05,3,0,0,0.00
2013-2-8,77,69,64,68,64,61,95,87,71,30.15,30.05,4,1,0,0.00
2013-2-9,75,67,60,68,63,58,95,88,76,30.16,30.06,5,1,0,0.00
2013-2-10,75,68,63,68,64,61,95,88,71,30.21,30.11,5,1,0,0.00
2013-2-11,76,68,61,67,62,59,95,84,64,30.22,30.12,5,1,0,0.00
2013-2-12,74,67,63,63,61,59,93,82,63,30.19,30.09,6,1,0,0.00
2013-2-13,74,66,60,61,58,55,94,79,53,30.15,30.03,5,1,0,0.00
2013-2-14,74,65,59,63,59,56,93,82,61,30.12,30.01,5,1,0,0.00
2013-2-15,73,64,55,67,61,53,94,90,77,30.14,30.04,2,0,0,0.00
2013-2-16,75,67,62,66,62,60,95,86,70,30.17,30.07,6,2,0,0.00
2013-2-17,72,65,60,66,61,58,95,88,75,30.20,30.09,5,1,0,0.00
2013-2-18,69,65,62,65,62,59,94,88,76,30.18,30.08,4,1,0,0.00
2013-2-19,74,66,62,65,62,58,94,85,72,30.18,30.06,6,1,0,0.00
2013-2-20,75,67,62,67,63,60,95,87,72,30.17,30.07,5,2,0,0.00
2013-2-21,75,66,62,68,64,60,94,91,77,30.18,30.05,4,0,0,0.00
2013-2-22,69,65,62,67,63,60,95,94,91,30.17,30.06,2,0,0,0.00
2013-2-23,70,64,61,67,62,60,95,94,83,30.19,30.06,1,0,0,0.00
2013-2-24,74,67,63,68,63,62,95,88,73,30.14,30.03,7,2,0,0.00
2013-2-25,73,66,59,68,63,57,95,91,80,30.24,30.06,5,1,0,0.00
2013-2-26,75,66,59,66,62,57,95,88,69,30.19,30.10,6,1,0,0.00
2013-2-27,72,66,61,65,62,59,94,85,71,30.23,30.13,4,1,0,0.00
2013-2-28,75,66,58,64,60,56,94,80,62,30.22,30.11,5,2,0,0.00
2013-3-1,75,68,59,61,58,55,93,73,52,30.20,30.09,7,2,0,0.00
2013-3-2,74,66,58,63,60,55,92,81,63,30.20,30.08,6,1,0,0.00
2013-3-3,76,68,60,65,60,55,94,77,51,30.19,30.11,6,2,0,0.00
2013-3-4,75,66,58,64,60,55,93,79,53,30.22,30.10,6,1,0,0.00
2013-3-5,75,67,58,65,60,55,92,80,61,30.17,30.06,5,1,0,0.00
2013-3-6,75,67,61,67,62,59,94,87,65,30.17,30.06,3,0,0,0.00
2013-3-7,78,67,59,66,62,57,95,84,60,30.13,29.98,4,0,0,0.00
2013-3-8,80,69,63,67,63,60,94,81,56,30.06,29.89,3,0,0,0.00
2013-3-9,79,70,63,67,64,61,94,80,59,30.00,29.88,5,1,0,0.00
2013-3-10,81,71,63,67,64,60,93,79,58,30.03,29.88,7,2,0,0.00
2013-3-11,84,69,60,70,64,55,94,84,57,30.07,29.95,2,0,0,0.00
2013-3-12,74,68,64,68,65,62,94,90,78,30.09,29.97,2,0,0,0.00
2013-3-13,74,67,61,69,64,59,95,91,82,30.10,30.00,3,0,0,0.00
2013-3-14,77,68,59,68,64,57,95,88,71,30.10,29.97,3,0,0,0.00
2013-3-15,73,68,63,71,66,62,95,93,87,30.01,29.90,0,0,0,0.00
2013-3-16,74,66,62,68,64,60,95,91,77,30.03,29.90,5,1,0,0.00
2013-3-17,71,64,62,64,61,60,94,89,74,30.04,29.96,0,0,0,0.00
2013-3-18,75,67,62,65,61,59,95,84,65,30.06,29.95,5,1,0,0.00
2013-3-19,74,66,59,68,63,57,94,88,72,30.05,29.96,4,0,0,0.00
2013-3-20,78,68,58,71,64,56,95,85,68,30.11,29.98,3,0,0,0.00
2013-3-21,82,71,62,70,65,60,95,83,58,30.12,29.99,3,0,0,0.00
2013-3-22,80,70,62,68,64,60,95,82,60,30.08,29.93,2,0,0,0.00
2013-3-23,78,69,63,68,63,60,93,82,56,30.04,29.94,3,0,0,0.00
2013-3-24,77,69,62,68,64,59,93,85,63,30.04,29.94,3,0,0,0.00
2013-3-25,75,70,65,69,66,63,95,89,79,30.05,29.94,3,0,0,0.00
2013-3-26,80,71,64,68,65,62,94,83,65,30.06,29.96,4,1,0,0.00
2013-3-27,76,69,63,67,64,61,94,85,66,30.06,29.93,4,0,0,0.00
2013-3-28,77,68,61,68,63,59,95,85,66,30.08,29.96,5,1,0,0.00
2013-3-29,74,67,61,70,64,59,95,91,80,30.07,29.97,3,0,0,0.00
2013-3-30,73,67,64,68,64,-100,95,93,84,30.07,29.97,3,0,0,0.00
2013-3-31,73,66,61,67,61,58,95,85,70,30.05,29.95,4,1,0,0.00
2013-4-1,73,65,59,61,59,56,92,81,60,30.03,29.93,4,0,0,0.00
2013-4-2,74,64,56,63,59,54,94,84,64,30.10,29.98,4,1,0,0.00
2013-4-3,73,65,60,64,61,57,94,86,69,30.11,30.01,2,0,0,0.00
2013-4-4,75,67,59,65,62,57,94,85,68,30.12,30.02,4,0,0,0.00
2013-4-5,76,68,61,69,65,59,94,90,77,30.16,30.04,2,0,0,0.00
2013-4-6,80,72,66,73,67,63,95,86,67,30.21,30.09,4,0,0,0.00
2013-4-7,81,71,63,70,66,61,95,84,60,30.22,30.08,4,1,0,0.00
2013-4-8,80,70,64,69,65,62,95,84,62,30.14,29.99,6,1,0,0.00
2013-4-9,79,70,63,68,64,61,95,83,63,30.12,29.99,5,1,0,0.00
2013-4-10,80,71,64,69,65,62,94,84,59,30.11,30.01,6,1,0,0.00
2013-4-11,78,70,63,70,66,62,95,87,72,30.10,29.98,2,0,0,0.00
2013-4-12,80,70,64,68,64,61,94,81,55,30.03,29.92,2,0,0,0.00
2013-4-13,82,70,62,70,65,60,94,82,61,30.01,29.88,3,0,0,0.00
2013-4-14,83,72,62,70,65,60,95,81,58,29.99,29.88,3,1,0,0.00
2013-4-15,83,71,62,71,65,59,93,81,60,30.09,29.95,2,0,0,0.00
2013-4-16,82,72,64,69,65,62,94,81,63,30.14,30.01,5,0,0,0.00
2013-4-17,78,70,65,71,66,63,99,88,73,30.18,30.07,4,1,0,0.00
2013-4-18,78,70,63,71,67,62,99,92,77,30.17,30.08,4,1,0,0.00
2013-4-19,73,68,62,71,66,61,99,96,88,30.15,30.04,3,0,0,0.00
2013-4-20,83,70,60,70,66,59,99,86,61,30.12,30.01,2,0,0,0.00
2013-4-21,79,72,67,71,68,66,98,89,71,30.07,29.96,2,0,0,0.00
2013-4-22,84,73,63,73,68,62,99,86,65,30.08,29.95,3,0,0,0.00
2013-4-23,82,72,62,72,67,61,99,86,64,30.09,30.00,2,0,0,0.00
2013-4-24,80,70,61,70,66,60,99,86,61,30.11,30.01,4,1,0,0.00
2013-4-25,79,70,61,69,65,60,99,86,66,30.10,30.01,4,1,0,0.00
2013-4-26,78,70,64,69,66,63,98,86,66,30.08,30.00,4,1,0,0.00
2013-4-27,79,70,62,70,66,61,99,88,67,30.10,29.99,3,0,0,0.00
2013-4-28,81,71,63,73,67,62,98,89,71,30.08,29.96,3,0,0,0.00
2013-4-29,78,71,66,71,68,65,99,90,73,30.03,29.93,1,0,0,0.00
2013-4-30,78,70,62,71,67,61,98,91,72,30.07,29.97,2,0,0,0.00
2013-5-1,80,70,60,70,65,59,98,85,65,30.11,30.01,4,1,0,0.00
2013-5-2,77,69,62,70,65,61,99,90,67,30.12,30.05,3,0,0,0.00
2013-5-3,79,70,62,68,64,61,98,85,61,30.11,29.99,4,1,0,0.00
2013-5-4,79,70,64,70,66,63,99,89,72,30.04,29.93,2,0,0,0.00
2013-5-5,81,72,64,70,66,62,96,84,64,29.99,29.87,3,0,0,0.00
2013-5-6,83,72,62,69,66,61,97,81,59,29.98,29.87,3,0,0,0.00
2013-5-7,81,72,62,72,67,60,97,87,70,29.98,29.88,4,1,0,0.00
2013-5-8,82,72,64,73,68,62,98,88,72,30.01,29.91,4,0,0,0.00
2013-5-9,80,71,66,72,69,65,98,93,71,30.07,29.96,2,0,0,0.00
2013-5-10,82,73,69,73,68,-100,99,89,73,30.09,29.99,1,0,0,0.00
2013-5-11,83,74,69,72,69,-100,98,85,64,30.08,29.98,4,1,0,0.00
2013-5-12,81,72,66,73,68,65,99,89,68,30.08,30.01,4,1,0,0.00
2013-5-13,82,73,66,72,68,65,99,86,64,30.10,30.01,3,1,0,0.00
2013-5-14,80,72,64,72,68,63,99,87,70,30.14,30.06,5,1,0,0.00
2013-5-15,81,72,65,71,68,64,98,88,66,30.17,30.07,4,1,0,0.00
2013-5-16,79,68,65,73,51,-100,99,88,65,30.16,30.05,4,1,0,0.00
2013-5-17,80,71,65,71,63,-100,99,89,67,30.11,30.00,4,1,0,0.00
2013-5-18,78,70,64,72,67,63,99,92,80,30.06,29.97,1,0,0,0.00
2013-5-19,79,71,65,72,68,64,99,90,74,30.02,29.90,2,0,0,0.00
2013-5-20,79,70,65,71,68,63,98,92,75,30.01,29.91,2,0,0,0.00
2013-5-21,81,71,60,72,66,59,99,88,66,30.02,29.93,3,0,0,0.00
2013-5-22,84,74,66,73,69,65,97,85,67,30.05,29.95,2,0,0,0.00
2013-5-23,81,73,66,72,69,65,98,87,69,30.05,29.97,4,1,0,0.00
2013-5-24,80,72,66,72,68,65,98,87,69,30.07,29.99,5,1,0,0.00
2013-5-25,77,70,65,72,68,64,98,94,79,30.08,29.99,3,1,0,0.00
2013-5-26,79,71,66,72,68,65,99,91,73,30.12,30.02,4,1,0,0.00
2013-5-27,78,70,65,72,67,64,99,92,78,30.11,30.03,4,0,0,0.00
2013-5-28,81,71,63,74,69,62,99,92,78,30.10,30.01,2,0,0,0.00
2013-5-29,80,72,67,73,69,66,99,91,73,30.09,30.00,5,1,0,0.00
2013-5-30,80,72,66,72,68,66,99,88,72,30.04,29.94,4,1,0,0.00
2013-5-31,81,73,67,74,70,66,99,90,72,30.06,29.96,3,1,0,0.00
2013-6-1,80,72,65,73,69,64,99,90,73,30.11,30.01,4,0,0,0.00
2013-6-2,78,72,67,73,69,66,99,91,77,30.11,30.04,6,1,0,0.00
2013-6-3,80,72,66,71,67,64,98,85,61,30.10,30.02,5,1,0,0.00
2013-6-4,79,72,66,70,67,64,96,86,72,30.06,29.97,6,1,0,0.00
2013-6-5,78,72,65,71,67,64,98,86,73,30.05,29.96,5,1,0,0.00
2013-6-6,78,70,64,70,66,63,97,89,73,30.05,29.95,4,0,0,0.00
2013-6-7,79,70,62,71,66,61,99,90,71,30.05,29.96,5,1,0,0.00
2013-6-8,80,71,65,72,67,64,99,89,72,30.08,29.97,4,1,0,0.00
2013-6-9,80,72,65,72,68,64,99,88,70,30.09,30.01,4,1,0,0.00
2013-6-10,79,71,64,72,67,63,99,89,75,30.08,30.00,5,1,0,0.00
2013-6-11,80,72,65,70,67,64,98,87,66,30.06,29.98,4,1,0,0.00
2013-6-12,81,71,64,72,68,63,98,90,66,30.11,30.01,5,1,0,0.00
2013-6-13,79,70,65,73,68,64,99,92,74,30.12,30.06,4,1,0,0.00
2013-6-14,78,70,65,72,68,64,99,92,74,30.11,30.01,4,1,0,0.00
2013-6-15,79,71,63,71,67,62,99,88,69,30.05,29.94,4,1,0,0.00
2013-6-16,80,72,64,71,68,63,98,87,67,30.03,29.94,4,1,0,0.00
2013-6-17,81,73,67,71,69,66,97,86,69,30.09,29.98,4,1,0,0.00
2013-6-18,81,73,66,73,69,65,99,88,68,30.08,30.01,4,1,0,0.00
2013-6-19,79,71,66,72,68,65,98,89,72,30.09,30.02,3,1,0,0.00